sat.trackr.live / text

‹ back to catalog

YUNHAI-1 03

NORAD 53877 · 2022-115A

PAYLOAD ACTIVE UNKNOWN

§ Identity

Operator
Country
PRC
Launch date
2022-09-20
Launch site
JSC
Launch vehicle
Mass (kg)
RCS (m²)

External: N2YO · Heavens-Above · Gunter

§ Orbital elements

Epoch: 2026-05-25T03:23:00.631392Z

Period
100.51 min
Inclination
98.5534°
Eccentricity
0.0005925
Mean motion
14.32700635 rev/d
Perigee alt
778.5 km
Apogee alt
787.0 km
Semi-major
7,160.9 km
B*
1.2371e-4
RAAN
143.5817°
Arg perigee
109.7201°
Mean anomaly
250.4622°
Rev number
19,221

§ Raw data

YUNHAI-1 031 53877U 22115A   26145.14097953  .00000293  00000+0  12371-3 0  99972 53877  98.5534 143.5817 0005925 109.7201 250.4622 14.32700635192213

JSON: /api/v1/satellites/53877 · /tle

For live sub-satellite position, see the globe view (requires WebGL).

§ Visibility from observer

Set your observer location to see the next 7 days of passes ≥ 10°. The values pass through the URL so the page stays shareable.

No JS? Fill the form by hand. The geolocation button needs JavaScript.

§ Radio — SatNOGS DB

ModeDescriptionDownlinkUplink
FM Mode L 1.704 GHz

1 transmitter · refreshed weekly from db.satnogs.org